#timestamp,LO_Frequency,Hit,StdDev 
1644483615.1,286046999.7,N
1644483635.9,286047000.3,N
1644483655.7,286047002.6,N
1644483675.6,286047002.4,N
1644483695.4,286047000.5,N
1644483715.2,286047000.7,N
1644483735.1,286047000.8,N
1644483736.0,286047000.8,N
1644483755.8,286046999.3,N
1644483775.6,286046998.6,N
1644483795.5,286046998.8,N
1644483815.3,286046996.9,N
1644483835.2,286046998.9,N
1644483855.9,286046997.1,N
1644483875.7,286046998.9,N
1644483895.6,286046998.9,N
1644483915.4,286046996.6,N
1644483935.3,286046999.2,N
1644483955.1,286046997.3,N
1644483956.0,286046997.3,N
1644483975.8,286046997.8,N
1644483995.7,286046997.1,N
1644484015.5,286046997.0,N
1644484035.3,286046997.1,N
1644484055.2,286046996.9,N
1644484075.0,286046997.3,N
1644484075.9,286046997.3,N
1644484095.8,286046997.3,N
1644484115.6,286046994.9,N
1644484135.4,286046999.4,N
1644484155.3,286046996.7,N
1644484175.1,286046998.9,N
1644484225.9,286046998.9,E
1644484235.8,286046998.9,N
1644484255.6,286047001.1,P
1644484275.5,286047000.7,N
1644484295.3,286046998.3,N
1644484315.2,286046999.4,N
1644484335.9,286046998.9,N
1644484355.7,286046996.6,Y
1644484375.6,286046999.4,P
1644484395.4,286046997.1,P
1644484415.2,286046995.6,P
1644484435.1,286046996.1,N
1644484436.0,286046996.1,N
1644484455.8,286046995.5,N
1644484475.7,286046995.6,N
1644484495.5,286046995.8,N
1644484515.3,286046995.1,Y
1644484535.2,286046999.2,P
1644484555.0,286046998.5,N
1644484555.9,286046998.5,N
1644484575.8,286046998.5,N
1644484595.6,286047002.3,N
1644484615.4,286046999.9,N
1644484635.3,286047000.0,N
1644484655.1,286046999.7,N
1644484675.8,286047001.9,N
1644484695.7,286047000.0,N
1644484715.5,286047000.1,N
1644484735.4,286047001.1,N
1644484755.2,286047002.6,N
1644484775.0,286047000.1,N
1644484775.9,286047000.1,N
1644484795.8,286047002.3,N
1644484815.6,286047002.4,N
1644484835.4,286047001.4,N
1644484855.3,286047004.4,N
1644484875.1,286047004.0,N
1644484895.9,286047003.7,N
1644484915.7,286047003.9,N
1644484935.5,286047002.4,N
1644484955.4,286047000.1,N
1644484975.2,286047000.5,N
1644484995.0,286047002.4,N
1644484995.9,286047002.4,N
1644485015.8,286046998.1,N
1644485035.6,286047001.1,N
1644485055.5,286046998.2,N
1644485075.3,286047000.2,N
1644485095.1,286047000.3,N
1644485115.9,286046998.5,N
1644485135.7,286047000.1,N
1644485155.5,286047001.9,N
1644485175.4,286046999.9,N
1644485195.2,286047002.4,N
1644485215.1,286046999.8,N
1644485216.0,286046999.8,N
1644485235.8,286047002.7,N
1644485255.6,286046999.8,N
1644485275.5,286047000.9,N
1644485295.3,286047000.0,N
1644485315.1,286047000.8,N
1644485335.9,286046998.5,N
1644485355.7,286047000.0,N
1644485375.6,286047000.7,N
1644485395.4,286047001.1,N
1644485415.2,286047000.9,N
1644485435.1,286047000.9,N
1644485436.0,286047000.9,N
1644485455.8,286047000.4,N
1644485475.7,286047002.8,N
1644485495.5,286047002.1,N
1644485515.3,286047004.3,Y
1644485535.2,286047002.3,P
1644485555.0,286047002.3,N
1644485555.9,286047002.3,N
1644485575.8,286047000.4,N
1644485595.0,286047000.1,N
1644485595.9,286047000.1,N
1644485615.8,286047001.3,N
1644485635.6,286047001.3,N
1644485655.4,286047002.3,N
1644485675.3,286047004.4,Y
1644485695.1,286047000.8,P
1644485715.8,286047001.2,P
1644485735.7,286046998.7,P
1644485755.5,286047001.1,N
1644485775.4,286047000.7,N
1644485795.2,286047001.1,N
1644485815.0,286047000.3,N
1644485815.9,286047000.3,N
1644485835.8,286046998.5,N
1644485855.6,286047000.8,N
1644485875.4,286046998.3,N
1644485895.3,286047000.4,N
1644485915.1,286047000.8,N
1644485935.9,286047000.4,N
1644485955.7,286046999.7,N
1644485975.5,286047000.7,N
1644485995.4,286047001.0,N
1644486015.2,286046998.5,N
1644486065.1,286046998.6,E
1644486075.9,286047000.8,N
1644486095.7,286047002.8,P
1644486115.6,286047001.0,N
1644486135.4,286046998.6,N
1644486155.2,286047001.2,N
1644486175.1,286046996.6,N
1644486176.0,286046996.6,N
1644486195.8,286046999.6,N
1644486215.7,286046996.6,N
1644486235.5,286046998.8,N
1644486255.3,286046999.0,N
1644486275.2,286046998.2,N
1644486295.9,286047000.4,N
1644486315.7,286047000.8,N
1644486335.6,286047001.1,N
1644486355.4,286046998.9,N
1644486375.3,286046998.3,N
1644486395.1,286046998.5,N
1644486396.0,286046998.5,N
1644486415.8,286046998.7,N
1644486435.7,286046998.3,N
1644486455.5,286046999.8,N
1644486475.3,286047000.1,N
1644486495.2,286047001.0,N
1644486515.0,286047000.9,N
1644486515.9,286047000.9,N
1644486535.8,286046999.7,N
1644486555.6,286046998.2,N
1644486575.4,286046998.6,N
1644486595.3,286047000.7,N
1644486615.1,286046998.1,N
1644486635.8,286047000.1,N
1644486655.7,286046998.1,N
1644486675.5,286046999.0,N
1644486695.4,286046997.5,N
1644486715.2,286046997.8,N
1644486735.0,286046997.3,N
1644486735.9,286046997.3,N
1644486755.8,286046997.4,N
1644486775.6,286046999.1,N
1644486795.4,286046996.6,N
1644486815.3,286046998.7,N
1644486835.1,286047000.3,N
1644486855.9,286047002.8,N
1644486875.7,286047000.8,N
1644486895.5,286047000.4,N
1644486915.4,286046998.5,N
1644486935.2,286046999.7,N
1644486955.0,286047000.0,N
1644486955.9,286047000.0,N
1644486975.8,286047000.0,N
1644486995.6,286047000.7,N
1644487015.5,286047001.1,N
1644487035.3,286047001.0,N
1644487055.1,286047002.8,N
1644487075.9,286047001.4,N
1644487095.7,286047001.3,N
1644487115.5,286047001.5,N
1644487135.4,286047001.7,N
1644487155.2,286047002.5,N
1644487175.1,286047001.9,N
1644487176.0,286047001.9,N
1644487195.8,286047002.8,N
